Total_Precipitation_Accumulation
0.02 0.01 0.04 0.04 0.09 0.03 0.01 0.01 0.01 0.01 0.00 0.00 0.00 0.00 0.00 0.00 0.00 0.00 0.00 0.00 0.00 0.00
0.04 0.03 0.07 0.25 0.13 0.11 0.02 0.02 0.01 0.00 0.01 0.00 0.00 0.01 0.03 0.06 0.07 0.04 0.01 0.01 0.01 0.01
0.05 0.04 0.09 0.20 0.05 0.09 0.06 0.06 0.06 0.02 0.01 0.01 0.04 0.12 0.26 0.27 0.15 0.07 0.06 0.05 0.01 0.00
0.12 0.10 0.06 0.08 0.14 0.09 0.18 0.16 0.11 0.11 0.18 0.37 0.48 0.43 0.32 0.21 0.15 0.09 0.05 0.02 0.01 0.00
0.17 0.16 0.15 0.18 0.15 0.16 0.12 0.14 0.28 0.36 0.29 0.18 0.14 0.11 0.09 0.08 0.06 0.04 0.02 0.01 0.00 0.00
0.24 0.27 0.34 0.25 0.20 0.15 0.08 0.05 0.09 0.06 0.08 0.13 0.12 0.09 0.07 0.03 0.01 0.00 0.00 0.00 0.00 0.00
0.25 0.32 0.22 0.19 0.12 0.09 0.03 0.02 0.05 0.09 0.12 0.09 0.05 0.02 0.01 0.00 0.00 0.00 0.00 0.00 0.00 0.00
0.29 0.37 0.21 0.16 0.09 0.04 0.04 0.04 0.04 0.03 0.02 0.01 0.00 0.00 0.00 0.00 0.00 0.00 0.00 0.00 0.00 0.00
0.20 0.13 0.15 0.10 0.05 0.02 0.00 0.01 0.01 0.00 0.00 0.00 0.00 0.00 0.00 0.00 0.00 0.00 0.00 0.00 0.00 0.00
0.11 0.06 0.06 0.03 0.02 0.01 0.00 0.01 0.00 0.00 0.00 0.00 0.00 0.00 0.00 0.00 0.00 0.00 0.00 0.00 0.00 0.00
0.04 0.02 0.02 0.02 0.02 0.02 0.01 0.00 0.00 0.00 0.00 0.00 0.00 0.00 0.00 0.00 0.00 0.00 0.00 0.00 0.00 0.00
0.00 0.00 0.01 0.01 0.00 0.00 0.00 0.00 0.00 0.00 0.00 0.00 0.00 0.00 0.00 0.00 0.00 0.00 0.00 0.00 0.00 0.00
0.00 0.00 0.00 0.00 0.00 0.00 0.00 0.00 0.00 0.00 0.00 0.00 0.00 0.00 0.00 0.00 0.00 0.00 0.00 0.00 0.00 0.00
0.00 0.00 0.00 0.00 0.00 0.00 0.00 0.00 0.00 0.00 0.00 0.00 0.00 0.00 0.00 0.00 0.00 0.00 0.00 0.00 0.00 0.00